Terug naar catalogus

IRIDIUM 33 DEB

ActiefPO
NORAD 34896·DEBRIS·🇺🇸 United States

Gelanceerd Sep 14, 1997 vanaf Baikonur Cosmodrome

Loading…

Volgende Passages (komende 24 uur)

TLE

VersSource: Space-Track

Epoch: Sep 14, 2026, 14:15 UTC

1 34896U 97051MY  26257.59410998  .00003256  00000-0  55413-3 0  9996
2 34896  86.3325 202.7032 0025665 357.5910 129.4602 14.68596291916651

Volg IRIDIUM 33 DEB in realtime met AllMySat

Download on the App Store